Wind_Speed
45 46 48 51 52 52 49 44 41 39 38 41 43 43 40 36 34 33 29 25 23 20 19 19 16 14 13 12 11 10 10 9 6 4 3 3 3 5 6 7 8 9 10 12 13 11 12 11 11
47 46 48 51 54 55 50 44 42 42 41 40 42 44 42 39 36 32 30 29 26 23 21 21 18 16 15 13 11 10 9 7 4 3 4 4 5 6 8 9 10 12 12 11 11 11 11 12 12
50 49 49 52 54 53 50 43 44 43 43 43 44 43 42 40 37 36 34 32 27 23 22 20 20 18 16 14 11 9 7 5 5 6 5 5 5 7 10 11 12 12 12 12 11 12 12 12 13
51 52 53 55 55 53 49 47 46 45 44 46 44 43 41 39 37 37 36 32 28 22 24 20 19 19 18 14 12 10 8 8 7 6 6 6 8 9 10 10 11 12 12 12 12 13 14 14 13
55 56 55 50 55 54 52 50 49 47 46 47 46 44 40 40 38 37 35 32 29 26 24 22 20 20 19 16 13 11 10 8 7 7 7 8 8 9 10 11 12 12 13 13 14 14 15 14 15
58 59 58 49 50 57 55 51 53 50 49 49 49 46 45 42 40 38 36 31 30 27 27 25 23 21 18 16 14 12 10 9 8 8 8 9 9 10 11 12 13 14 14 14 15 15 15 15 16
59 60 53 47 43 57 59 52 56 53 53 52 50 49 47 45 42 39 38 33 32 29 28 26 24 21 19 16 14 13 12 10 10 9 10 10 10 11 12 13 14 15 15 15 15 15 15 16 17
59 60 56 50 45 52 58 56 56 53 56 54 52 50 47 46 44 41 38 36 35 31 29 27 24 22 21 18 15 13 13 13 12 12 12 12 11 12 13 14 15 15 15 15 16 15 16 17 18
60 59 54 47 43 47 59 58 58 54 55 58 55 52 49 47 45 42 39 38 34 31 30 27 24 23 21 19 17 15 13 13 14 15 16 15 14 14 14 15 15 15 16 16 17 16 17 17 19
61 58 50 46 42 43 59 54 62 58 56 59 59 55 51 49 46 44 42 41 38 33 31 28 26 25 23 21 19 17 15 15 14 16 17 17 17 17 17 18 18 17 17 17 17 18 19 19 19
59 55 48 44 40 44 61 61 59 61 60 62 60 59 54 52 50 48 45 44 42 37 34 31 30 28 25 24 22 19 18 17 17 17 18 18 18 17 17 18 18 18 17 17 19 20 21 21 20
58 55 50 45 42 43 55 67 63 60 52 59 58 61 58 53 50 48 46 44 44 40 38 35 32 30 28 27 24 22 21 20 20 19 19 19 19 18 18 19 18 18 18 18 20 21 22 22 22
58 56 51 48 45 43 51 60 66 63 50 61 61 59 60 53 51 48 49 48 46 44 40 37 35 33 31 29 26 25 24 24 22 21 20 20 20 19 19 19 19 20 19 20 21 22 23 23 24
57 56 53 51 47 41 46 55 64 66 58 62 60 57 57 57 53 50 50 48 46 44 43 40 37 35 33 30 29 28 26 26 24 23 22 22 21 20 20 21 21 21 21 22 22 22 23 24 25
56 57 54 51 48 42 42 53 56 64 68 56 55 55 57 57 58 54 51 52 48 44 40 41 40 38 35 34 32 30 29 28 27 26 24 24 23 23 22 23 24 23 24 24 24 24 24 25 26
55 56 54 50 48 43 41 45 51 62 63 63 54 53 54 59 59 57 51 54 52 47 43 42 41 39 38 36 35 33 31 31 30 28 27 27 27 25 25 25 25 25 25 26 26 26 26 26 28
54 55 53 49 47 44 38 43 47 52 62 62 62 56 53 55 57 59 58 54 51 49 47 45 43 41 40 40 37 35 34 33 32 31 31 30 29 27 27 27 28 28 27 28 28 28 28 29 30
64 57 52 48 45 42 38 41 45 49 56 55 55 59 53 56 59 58 60 63 58 53 47 46 45 44 43 42 39 36 34 34 35 34 33 32 30 29 29 30 31 29 29 29 29 30 30 31 33
55 54 51 46 42 42 40 39 43 49 56 55 58 62 49 54 57 56 58 56 64 60 50 45 44 44 44 42 40 38 37 38 37 35 32 30 32 32 32 33 33 31 30 32 32 32 33 34 36
55 51 44 42 40 40 39 39 42 45 53 49 52 49 60 51 52 55 60 62 58 59 57 53 50 48 44 42 42 42 41 41 38 37 35 35 34 35 36 34 32 32 32 33 35 37 36 37 38
55 49 43 41 40 39 37 40 39 43 51 57 48 54 49 41 52 54 60 57 49 53 56 54 54 52 49 47 46 45 43 42 40 39 40 40 39 37 37 36 35 36 37 37 38 40 40 40 39
51 45 37 39 39 36 33 41 38 42 46 48 43 45 44 52 44 52 57 55 48 48 49 57 54 52 50 49 48 47 46 44 43 44 42 40 41 41 39 38 37 39 39 39 41 43 42 41 41
43 46 38 39 40 38 34 33 38 43 43 41 38 36 44 56 52 41 39 50 51 46 46 50 52 54 53 53 51 50 49 48 46 45 43 43 43 43 41 39 39 39 41 43 43 43 41 41 42
36 46 43 37 37 37 34 29 27 35 39 40 38 39 35 40 39 50 46 41 43 44 43 46 48 48 50 52 51 49 50 50 48 46 45 44 44 44 41 41 41 43 45 45 45 44 42 42 42
31 32 43 38 38 40 34 32 25 29 33 37 39 35 35 39 40 40 44 44 45 41 39 43 49 51 50 49 50 51 51 50 48 47 47 47 46 44 44 43 44 46 48 46 45 43 42 42 41
31 28 34 40 41 38 33 33 25 24 32 29 31 35 36 31 38 41 38 39 40 41 41 39 44 49 51 53 51 48 48 49 48 46 45 44 43 44 44 47 47 48 46 44 45 42 43 42 42
34 30 30 30 35 36 33 33 22 22 21 28 30 28 32 37 35 40 45 49 49 46 40 41 43 45 50 53 52 53 53 51 49 47 47 48 50 54 55 53 51 50 47 45 43 43 43 44 40
34 31 29 28 32 34 33 31 24 23 27 31 30 30 32 35 40 42 45 48 51 55 52 52 50 49 48 50 54 54 52 52 53 54 54 52 53 50 49 49 49 48 45 43 43 45 44 41 38
31 35 31 28 27 28 29 29 24 23 27 27 29 34 36 36 37 42 47 47 50 52 55 52 50 51 52 52 51 51 53 56 56 55 53 49 44 42 43 43 43 42 42 43 44 44 41 38 37
31 32 33 31 29 28 27 26 20 18 25 27 24 25 28 33 42 41 45 48 48 47 46 50 48 50 51 52 49 48 48 49 48 44 47 47 44 44 44 43 43 43 43 44 43 41 38 37 36
Wind_Direction
226 229 229 226 223 221 220 216 214 214 215 215 219 222 224 224 222 225 228 226 227 223 232 234 236 239 242 243 249 250 247 250 256 256 272 292 317 324 325 325 325 320 317 311 311 311 310 318 319
227 230 232 231 226 222 220 218 218 213 218 218 220 223 224 224 225 224 228 226 229 231 232 232 237 240 242 244 245 245 240 235 240 258 271 292 310 317 317 317 312 309 307 305 304 305 310 316 317
226 231 235 233 230 223 220 220 220 216 216 218 219 222 224 226 224 226 229 229 226 230 231 229 233 240 239 237 235 236 236 240 249 263 278 293 307 313 310 305 304 303 305 304 304 305 311 312 316
225 231 234 237 232 226 221 219 221 220 217 219 221 224 223 226 228 228 228 232 231 228 229 227 231 235 232 228 228 232 236 243 253 263 275 298 305 306 300 303 308 309 307 305 310 312 312 315 316
225 229 234 237 232 227 223 220 216 219 219 220 218 221 225 226 227 232 232 231 230 226 226 218 218 225 225 224 226 232 240 245 254 269 279 284 291 297 304 308 312 312 311 311 313 311 311 314 313
225 229 233 235 234 225 221 218 224 213 219 220 219 218 220 226 226 229 235 233 226 224 223 213 209 215 223 227 235 236 243 249 255 262 275 281 292 300 306 311 312 312 310 310 309 311 312 314 316
226 229 234 236 237 228 219 214 224 220 216 220 219 217 218 222 227 229 233 232 228 220 220 217 208 210 217 223 234 246 255 255 259 266 273 280 289 298 305 308 309 307 309 307 306 310 313 316 321
226 228 229 233 235 228 217 212 220 222 217 219 219 218 217 221 222 226 231 232 230 222 219 220 216 212 216 219 228 240 254 264 268 272 276 284 291 297 303 305 305 306 306 307 309 312 315 318 319
224 226 227 234 240 229 216 211 215 221 220 221 221 219 217 220 222 222 226 231 230 227 224 223 222 222 220 223 227 233 242 256 269 278 286 291 293 296 298 300 302 303 305 308 310 312 314 317 317
222 224 226 229 234 228 211 211 215 220 219 222 222 219 217 218 221 220 221 225 228 225 228 228 227 228 228 229 231 233 236 243 254 264 274 282 290 297 299 300 301 301 304 305 307 310 313 314 314
220 221 221 223 228 226 210 207 208 216 220 220 224 222 217 219 218 217 218 218 222 222 223 227 226 228 230 233 235 238 239 241 245 254 262 269 277 282 285 287 291 296 300 303 307 310 311 312 311
218 218 220 219 222 225 214 212 216 211 221 226 226 224 220 219 219 223 217 218 221 222 222 223 226 230 232 235 238 241 244 246 247 251 257 264 269 276 280 285 288 293 297 302 305 305 307 307 308
216 217 217 218 220 223 217 214 214 213 211 219 226 227 223 219 221 222 223 217 219 219 223 224 226 231 234 238 240 243 247 251 252 253 255 261 266 271 277 282 286 291 295 296 297 298 300 302 305
214 216 217 218 218 221 219 217 213 212 210 215 222 224 225 222 222 225 224 220 218 222 219 222 226 230 236 241 244 247 249 252 255 257 259 264 268 273 277 281 284 289 292 293 294 296 298 302 304
214 215 218 219 219 218 217 220 216 213 214 211 220 222 223 223 223 224 225 219 217 219 224 223 225 229 234 240 245 249 252 254 253 256 260 264 269 273 276 280 284 287 288 290 292 295 297 300 301
213 214 217 220 219 219 217 219 220 216 215 218 219 224 222 221 223 223 227 226 220 218 220 223 227 229 232 236 241 246 250 253 254 256 260 264 267 271 275 278 281 280 283 285 289 293 295 299 299
210 213 216 219 222 219 221 218 220 219 218 221 225 224 224 221 222 223 225 232 219 217 220 221 221 225 231 235 239 243 247 250 253 255 256 259 265 271 276 276 278 278 282 285 291 294 297 299 298
213 209 215 221 221 221 223 219 220 218 217 218 225 223 227 227 227 225 225 228 231 219 218 223 224 227 230 236 240 242 245 247 248 251 257 262 268 272 273 274 275 278 282 285 289 292 294 295 295
208 212 214 221 222 220 223 222 220 218 216 220 220 228 224 227 224 227 228 230 226 224 215 217 222 225 229 233 237 240 240 244 248 254 261 266 268 269 270 273 277 279 281 284 286 289 291 290 289
205 210 215 221 224 224 221 224 221 220 216 221 219 214 229 228 225 232 229 228 226 218 214 215 219 224 228 230 234 239 242 245 249 252 254 261 265 267 270 272 275 277 278 279 282 285 285 287 290
206 210 211 219 223 226 224 222 224 221 220 222 224 221 210 216 223 225 230 228 221 224 220 219 223 225 228 232 236 238 239 242 245 250 252 255 259 263 266 268 269 273 275 277 280 282 285 287 290
208 208 207 216 221 223 225 223 221 223 226 226 232 237 233 219 225 224 230 226 226 229 231 226 224 227 229 231 235 239 242 245 248 251 253 256 260 262 263 264 266 269 272 276 278 281 284 288 292
204 207 205 212 216 218 221 224 222 225 226 233 237 238 234 232 227 217 225 225 229 233 234 234 233 231 231 231 234 237 240 242 245 249 253 256 259 262 264 266 268 271 274 276 278 280 285 289 291
205 212 208 210 219 220 221 227 214 224 227 228 233 236 228 230 222 223 226 226 228 232 232 232 235 238 239 239 240 242 243 244 246 249 252 255 258 260 262 265 269 275 276 277 279 282 286 290 292
197 203 209 206 213 218 218 222 206 224 229 228 231 233 233 236 228 216 220 228 229 230 234 237 237 239 241 241 244 246 248 251 253 253 253 255 257 258 259 263 269 274 275 276 278 281 285 287 288
189 200 210 217 215 217 214 222 214 222 230 235 234 236 235 235 244 245 224 221 231 233 232 234 238 240 243 242 240 243 247 250 252 254 258 260 259 260 265 269 275 276 276 277 279 281 283 286 289
194 199 206 213 220 221 219 226 220 216 228 233 237 235 232 233 232 233 236 235 236 240 238 237 237 237 240 244 247 247 245 247 250 251 252 258 260 267 272 273 272 274 277 277 278 282 285 287 287
195 193 202 209 217 219 219 226 216 211 222 232 234 238 238 237 234 232 233 232 234 236 236 237 238 240 241 241 243 246 247 248 250 253 256 259 264 267 265 266 267 270 272 276 280 282 284 284 283
202 204 208 214 221 219 214 218 216 205 216 228 235 239 246 253 251 237 231 232 231 234 236 238 239 237 235 236 239 244 246 248 251 255 258 258 259 262 264 266 268 271 274 277 279 282 281 280 281
200 205 212 216 217 214 213 210 218 228 224 223 234 254 261 260 254 251 240 233 232 234 237 236 238 241 242 240 241 244 246 248 251 254 253 252 259 264 267 269 270 272 275 276 278 278 278 278 277
Height
5776 5782 5787 5793 5800 5805 5812 5822 5829 5833 5837 5838 5842 5847 5852 5856 5862 5869 5871 5874 5875 5878 5881 5883 5884 5885 5887 5888 5890 5890 5891 5892 5893 5894 5894 5895 5895 5894 5895 5895 5895 5895 5894 5895 5894 5893 5892 5892 5891
5768 5773 5778 5784 5791 5799 5810 5818 5824 5827 5832 5836 5839 5844 5848 5853 5857 5863 5867 5871 5873 5876 5877 5880 5882 5883 5885 5887 5888 5889 5890 5891 5892 5893 5894 5894 5894 5893 5894 5894 5895 5895 5894 5894 5893 5892 5891 5890 5889
5758 5764 5770 5774 5783 5795 5807 5813 5816 5820 5825 5829 5832 5838 5843 5849 5854 5858 5863 5867 5871 5873 5875 5877 5879 5882 5884 5885 5887 5888 5889 5890 5891 5892 5892 5893 5892 5892 5893 5894 5894 5894 5893 5893 5892 5891 5890 5889 5888
5748 5754 5760 5765 5778 5791 5802 5805 5809 5814 5819 5823 5830 5835 5840 5844 5850 5854 5858 5864 5867 5871 5872 5874 5877 5880 5882 5884 5885 5886 5888 5889 5890 5890 5891 5891 5891 5891 5892 5892 5892 5892 5892 5892 5891 5889 5888 5887 5886
5737 5744 5750 5760 5771 5785 5794 5797 5799 5807 5813 5818 5824 5830 5837 5840 5846 5850 5853 5859 5863 5867 5869 5872 5875 5877 5880 5881 5884 5885 5887 5888 5888 5889 5889 5890 5890 5890 5889 5890 5890 5890 5890 5890 5888 5888 5887 5886 5885
5727 5735 5742 5755 5767 5778 5783 5790 5792 5799 5805 5810 5818 5825 5830 5835 5840 5846 5850 5855 5859 5863 5866 5868 5871 5874 5877 5879 5881 5883 5885 5885 5886 5887 5887 5887 5887 5887 5887 5887 5888 5888 5888 5888 5887 5886 5885 5884 5883
5719 5729 5740 5751 5760 5763 5775 5784 5786 5792 5798 5803 5812 5819 5824 5830 5835 5841 5845 5850 5854 5857 5861 5865 5867 5871 5874 5877 5879 5880 5881 5883 5884 5884 5884 5885 5885 5885 5885 5885 5886 5886 5886 5886 5885 5884 5883 5882 5880
5713 5722 5731 5741 5750 5757 5767 5774 5780 5786 5791 5797 5804 5811 5820 5823 5828 5835 5841 5846 5850 5854 5857 5861 5865 5868 5871 5873 5875 5877 5878 5879 5880 5881 5882 5883 5883 5883 5883 5883 5884 5884 5884 5884 5884 5882 5881 5879 5878
5703 5711 5725 5737 5744 5754 5757 5766 5773 5780 5785 5790 5797 5806 5814 5820 5825 5830 5836 5841 5847 5852 5855 5859 5862 5865 5867 5869 5871 5873 5875 5877 5877 5878 5879 5880 5881 5881 5881 5881 5882 5881 5882 5881 5881 5880 5879 5878 5876
5693 5707 5722 5729 5735 5740 5749 5757 5764 5772 5778 5782 5791 5799 5808 5813 5820 5825 5831 5836 5842 5848 5852 5856 5858 5861 5863 5865 5867 5869 5872 5874 5875 5876 5877 5877 5877 5878 5878 5878 5879 5879 5879 5879 5878 5877 5876 5876 5875
5689 5703 5713 5721 5724 5728 5737 5744 5752 5761 5768 5775 5784 5793 5801 5806 5811 5816 5823 5829 5835 5840 5845 5850 5853 5856 5859 5861 5863 5865 5868 5870 5872 5874 5874 5875 5875 5876 5876 5876 5876 5876 5876 5875 5874 5874 5874 5873 5872
5683 5694 5703 5711 5715 5719 5727 5736 5741 5753 5770 5772 5778 5785 5795 5801 5807 5814 5818 5824 5828 5835 5839 5844 5848 5852 5854 5857 5859 5861 5863 5866 5868 5870 5871 5872 5872 5873 5873 5873 5873 5873 5873 5872 5871 5871 5871 5870 5868
5675 5685 5694 5701 5708 5712 5719 5728 5736 5747 5757 5761 5768 5778 5788 5797 5803 5808 5813 5816 5821 5826 5833 5839 5843 5847 5850 5853 5855 5857 5859 5861 5864 5866 5867 5867 5869 5869 5869 5869 5869 5869 5869 5869 5869 5868 5867 5866 5864
5669 5677 5685 5692 5700 5706 5713 5720 5728 5741 5749 5753 5760 5771 5781 5789 5795 5802 5807 5812 5815 5820 5825 5832 5836 5841 5845 5848 5851 5853 5855 5856 5859 5861 5862 5863 5864 5865 5865 5865 5865 5866 5866 5865 5865 5864 5863 5861 5860
5662 5668 5677 5686 5693 5699 5707 5712 5724 5734 5740 5749 5755 5762 5771 5780 5788 5795 5800 5804 5808 5814 5820 5825 5831 5835 5839 5842 5845 5848 5851 5853 5854 5856 5858 5858 5859 5860 5861 5861 5861 5861 5861 5861 5860 5859 5858 5857 5855
5654 5662 5670 5680 5687 5695 5702 5712 5718 5727 5735 5744 5748 5754 5763 5770 5779 5787 5791 5796 5800 5806 5813 5819 5824 5829 5832 5835 5838 5842 5845 5848 5850 5852 5853 5853 5854 5855 5856 5856 5856 5856 5856 5856 5855 5855 5854 5852 5850
5646 5657 5668 5675 5683 5690 5697 5704 5712 5720 5729 5738 5741 5748 5756 5763 5771 5778 5784 5789 5794 5799 5804 5809 5815 5820 5825 5828 5832 5836 5840 5842 5845 5847 5847 5848 5849 5850 5850 5850 5850 5851 5851 5850 5849 5848 5848 5845 5844
5642 5653 5663 5672 5681 5687 5692 5699 5705 5713 5720 5727 5732 5740 5747 5756 5764 5769 5775 5781 5787 5794 5798 5804 5809 5813 5816 5821 5826 5830 5834 5836 5838 5839 5841 5842 5843 5845 5844 5844 5844 5845 5844 5843 5843 5843 5841 5839 5837
5642 5652 5660 5669 5677 5682 5688 5695 5700 5704 5711 5716 5728 5734 5743 5750 5754 5761 5768 5773 5778 5785 5790 5796 5801 5803 5808 5813 5819 5823 5826 5827 5829 5831 5833 5835 5837 5837 5837 5837 5837 5838 5838 5837 5837 5836 5834 5832 5830
5636 5646 5657 5666 5674 5678 5684 5690 5695 5701 5709 5715 5724 5730 5737 5742 5748 5754 5761 5765 5771 5774 5779 5785 5790 5797 5801 5806 5810 5814 5817 5819 5822 5825 5827 5829 5829 5830 5830 5831 5831 5831 5832 5831 5830 5829 5827 5826 5823
5634 5645 5655 5663 5670 5675 5681 5685 5690 5697 5700 5707 5715 5722 5728 5736 5743 5748 5753 5758 5761 5767 5772 5777 5783 5788 5793 5798 5802 5806 5809 5813 5815 5817 5819 5820 5821 5823 5824 5825 5825 5825 5825 5824 5823 5821 5820 5819 5817
5633 5643 5650 5658 5665 5672 5677 5681 5685 5691 5697 5704 5711 5718 5723 5732 5736 5741 5748 5751 5755 5761 5766 5770 5775 5781 5785 5790 5794 5798 5802 5805 5807 5808 5811 5813 5813 5815 5816 5817 5818 5818 5818 5817 5816 5814 5813 5811 5809
5631 5638 5646 5654 5660 5667 5672 5676 5683 5687 5693 5704 5707 5709 5715 5719 5725 5732 5739 5742 5747 5753 5758 5762 5766 5771 5777 5782 5786 5790 5794 5798 5800 5802 5804 5806 5807 5808 5808 5809 5809 5810 5809 5808 5807 5805 5805 5803 5801
5627 5634 5644 5652 5658 5663 5670 5674 5680 5682 5689 5692 5696 5702 5707 5710 5715 5721 5731 5737 5742 5746 5751 5755 5759 5763 5767 5772 5777 5782 5786 5789 5792 5794 5796 5798 5799 5800 5801 5801 5801 5801 5800 5799 5797 5796 5796 5794 5791
5626 5631 5640 5648 5654 5659 5666 5670 5677 5679 5682 5687 5691 5696 5700 5703 5708 5715 5722 5729 5734 5737 5741 5747 5751 5755 5760 5764 5767 5771 5774 5778 5781 5783 5786 5788 5790 5791 5792 5793 5793 5793 5792 5790 5789 5788 5787 5784 5782
5625 5631 5637 5644 5651 5656 5663 5665 5673 5677 5679 5683 5685 5689 5694 5699 5703 5708 5714 5719 5725 5729 5733 5737 5742 5747 5751 5755 5758 5762 5765 5769 5771 5774 5776 5778 5779 5780 5781 5782 5783 5782 5781 5780 5779 5779 5777 5775 5773
5624 5630 5636 5643 5648 5654 5661 5664 5672 5675 5677 5679 5682 5684 5688 5691 5696 5701 5705 5710 5715 5720 5725 5730 5734 5737 5741 5744 5748 5752 5756 5760 5763 5765 5766 5768 5770 5771 5771 5771 5771 5771 5771 5770 5769 5769 5767 5765 5763
5625 5632 5635 5639 5644 5650 5657 5661 5667 5671 5673 5674 5677 5678 5680 5683 5687 5691 5696 5700 5706 5712 5714 5719 5724 5728 5732 5735 5739 5742 5745 5749 5752 5755 5757 5758 5760 5761 5762 5761 5761 5762 5762 5761 5760 5759 5757 5755 5754
5624 5628 5632 5638 5642 5646 5653 5658 5663 5665 5667 5669 5671 5674 5676 5677 5679 5682 5685 5690 5694 5700 5705 5709 5713 5717 5720 5724 5727 5731 5734 5738 5741 5744 5746 5748 5750 5750 5751 5752 5752 5752 5751 5751 5750 5749 5747 5746 5745
5622 5628 5633 5636 5641 5644 5648 5655 5657 5661 5663 5665 5667 5669 5670 5670 5670 5674 5678 5682 5685 5690 5695 5700 5704 5707 5711 5715 5718 5721 5725 5728 5730 5732 5735 5738 5739 5740 5741 5742 5742 5742 5741 5741 5739 5739 5739 5737 5736